User: anonymous   Login
Location: Fort Wayne
(41.1310°N, 85.1290°W)
Time: 15:45:01
(UTC-04:00)
Language:

Cosmos 2227 Rocket - Orbit

View from above orbital plane
View from above orbital plane
View from above satellite
View from above satellite

Ground track
Ground track

The orbit data is extracted from the following two-line orbital elements,

1 22285U 92093B   15209.20304833  .00000239  00000-0  14819-3 0  9992
2 22285 071.0198 219.6670 0002107 107.3062 252.8291 14.14975907164936
Epoch (UTC): 28 July 2015 04:52:23
Eccentricity: 0.0002107
inclination: 71.0198°
perigee height: 841 km
apogee height: 844 km
right ascension of ascending node: 219.6670°
argument of perigee: 107.3062°
revolutions per day: 14.14975907
mean anomaly at epoch: 252.8291°
orbit number at epoch: 16493

The dashed part of the orbit path shows where the satellite is in the earth's shadow,  

DLR